Regional Weather Roundup
Issued by NWS Grand Forks, ND

Home | Current Version | Previous Version | Text Only | Print | Product List | Glossary Off
Versions: 1 2 3 4 5 6 7 8 9 10 11 12 13 14 15 16 17 18 19 20 21 22 23 24 25 26 27 28 29 30 31 32 33 34 35 36 37 38 39 40 41 42 43 44 45 46 47 48 49 50

000
ASUS43 KFGF 311510
RWRFGF
PRAIRIE TO PINES  WEATHER ROUNDUP
NATIONAL WEATHER SERVICE EASTERN NORTH DAKOTA/GRAND FORKS ND
1000 AM CDT MON AUG 31 2015

 **SATELLITE DATA USED TO AUGMENT SKY COVER AT AUTOMATED STATIONS**
 *****  WEATHER ACROSS EASTERN NORTH DAKOTA  *****

CITY           SKY/WX    TMP DP  RH WIND       PRES   REMARKS
GRAND FORKS    CLOUDY    68  63  84 SW8       29.68R
GRAND FRKS AFB CLOUDY    70  65  85 SW2       29.69R
GRAND FRKS NWS   N/A     66 N/A N/A SW5         N/A
DEVILS LAKE    PTSUNNY   68  55  64 NW17G24   29.75R
FARGO          SUNNY     74  61  63 S15       29.70S
WAHPETON ARPT  SUNNY     73  59  60 S14       29.74S
$$

 ***** WEATHER ACROSS CENTRAL AND WESTERN NORTH DAKOTA  *****

CITY           SKY/WX    TMP DP  RH WIND       PRES   REMARKS
BISMARCK       PTSUNNY   69  59  70 N14G21    29.85R
MINOT          SUNNY     67  53  61 W12       29.81R
JAMESTOWN      PTSUNNY   72  65  78 N9        29.76R HAZE
MINOT AFB      SUNNY     67  57  70 W8        29.80R
GARRISON         N/A     68  55  63 NW14      29.85R
WILLISTON      SUNNY     64  49  57 W13       29.88R
DICKINSON      SUNNY     65  51  60 W17       29.91R
HETTINGER      PTSUNNY   63  51  65 NW10      29.95R
$$

 *****  OTHER AIRPORT OBSERVATIONS IN OUR AREA  *****

CITY           SKY/WX    TMP DP  RH WIND       PRES   REMARKS
WALHALLA       LGT RAIN  68  68 100 MISG      29.71R
GRAFTON AIRPOR FAIR      72  70  94 NW5       29.68R
VALLEY CITY AR FAIR      72  68  88 SW14      29.74R
CANDO          NOT AVBL
CAVALIER APRT  FAIR      70  66  88 NW7       29.70R FOG
GWINNER        FAIR      75  63  64 SW18G25   29.74R
SHEYENNE NWR     N/A     77  63  61 SW15      29.95S
ROLLA          FAIR      64  55  72 NW16G23   29.78S
 ***** THE ABOVE OBSERVATIONS ARE NON NWS ARE NOT QUALITY
       CONTROLLED AND MAY MIS-REPORT RAIN FOR SNOW...
$$

  *****  WEATHER ACROSS NORTHERN MINNESOTA  *****

CITY           SKY/WX    TMP DP  RH WIND       PRES   REMARKS
FLAG ISLAND    CLOUDY    68  61  77 SW9       29.67F
WARROAD        CLOUDY    70  63  78 SW5       29.69F
ROSEAU         CLOUDY    70  63  78 S7        29.68F
HALLOCK        CLOUDY    70  66  88 W7        29.68R
THF RVR FALLS  CLOUDY   N/A N/A N/A SW12      29.69R
BAUDETTE       MOSUNNY   71  61  70 S12       29.71R
WASKISH        MOSUNNY   73  63  68 S12G17    29.73F
CROOKSTON      CLOUDY    70  63  78 SW13      29.70R
STEPHEN NDAWN    N/A     70  64  83 S7          N/A
GREENBUSH NDAW   N/A     68  63  83 SW6         N/A
$$
  *****  WEATHER ACROSS CENTRAL AND WEST MINNESOTA  *****

CITY           SKY/WX    TMP DP  RH WIND       PRES   REMARKS
FOSSTON        SUNNY     73  57  56 S23       29.71F
BEMIDJI        SUNNY     72  59  63 S12       29.76S
PARK RAPIDS    SUNNY     73  60  63 S9        29.80R
ELBOW LAKE     FAIR      71  63  76 S14G23    29.79R
WADENA         SUNNY     72  63  73 S12G17    29.81R
DETROIT LAKES  SUNNY     73  59  60 S14G21    29.76F
MOORHEAD       SUNNY     72  61  68 S15       29.72S
FERGUS FALLS   SUNNY     73  61  64 S17       29.76F
MORRIS MN      SUNNY     72  66  83 S14G20    29.79R
STAPLES        SUNNY     70  63  78 S14G21    29.81S
$$
  *****  WEATHER ELSEWHERE ACROSS MINNESOTA  *****

CITY           SKY/WX    TMP DP  RH WIND       PRES   REMARKS
DULUTH         MOSUNNY   69  63  81 S13       29.89S
INTRNTL FALLS  MOSUNNY   71  62  73 SW8       29.76R
ELY            SUNNY     72  57  60 SW10      29.85S
CLOQUET        MOSUNNY   70  63  78 S9        29.89S
WHEATON        SUNNY     72  63  73 SE8       29.78R
BRAINERD       SUNNY     70  65  84 S16       29.85F
HIBBING        SUNNY     68  62  81 S8        29.86S
ALEXANDRIA     SUNNY     71  63  75 S15       29.83S
SAINT CLOUD    MOSUNNY   71  66  84 S14       29.89R
MINNEAPOLIS    MOSUNNY   73  67  81 S12       29.94S
$$

  *****  WEATHER ACROSS SOUTH DAKOTA  *****

CITY           SKY/WX    TMP DP  RH WIND       PRES   REMARKS
SIOUX FALLS    MOSUNNY   72  67  84 S13       29.89S
BROOKINGS      MOSUNNY   70  64  83 S17       29.89S
WATERTOWN      SUNNY     72  64  76 S17G26    29.81S
HURON          MOSUNNY   73  64  73 S16G25    29.78R
SISSETON         N/A     78  61  55 SW21G31   29.70F
ABERDEEN       MOSUNNY   74  64  71 S18       29.75R
MITCHELL       SUNNY     73  65  75 S12G21    29.83R
PIERRE         CLOUDY    73  59  61 NW21G28   29.80R
MOBRIDGE       CLOUDY    77  58  51 N21G33    29.78R
RAPID CITY     CLOUDY    64  55  72 N25G35    29.98R
$$

  *****  SOME WEATHER IN NEARBY STATES *****

CITY           SKY/WX    TMP DP  RH WIND       PRES   REMARKS
GLASGOW MT     SUNNY     59  44  57 W5        29.88R
GREAT FALLS MT PTSUNNY   58  34  40 SW16G24   29.93R
CHEYENNE WY    CLOUDY    70  47  43 W15       30.15R
SCOTTSBLUFF NE CLOUDY    73  56  54 NW8       29.98R
OMAHA NE       MOSUNNY   74  69  85 SE9       29.96S
DES MOINES IA  MOSUNNY   76  70  82 S7        29.99S
DAVENPORT IA   SUNNY     75  69  81 SE6       30.06S
CHICAGO IL     SUNNY     74  66  76 CALM      30.08R
EAU CLAIRE WI  CLOUDY    69  66  90 S7        29.99S
LA CROSSE WI   CLOUDY    68  65  90 S7        30.02R FOG
$$

  *****  SOME NATIONAL WEATHER *****

CITY           SKY/WX    TMP DP  RH WIND       PRES   REMARKS
LA GUARDIA NY  CLOUDY    82  67  60 NW7       30.03S
RALEIGH NC     CLOUDY    72  68  88 E6        30.13F
ATLANTA GA     PTSUNNY   73  66  78 E5        30.15R
NEW ORLEANS LA PTSUNNY   86  71  60 VRB7      30.08R HX  91
OKLAHOMA CITY  MOSUNNY   79  65  62 S13       30.01R
ALBUQUERQUE NM MOSUNNY   74  49  41 CALM      30.21S
SALT LAKE CITY MOSUNNY   68  44  42 S5        30.09R
LOS ANGELES CA PTSUNNY   71  64  78 E5        29.89R
BOISE ID       SUNNY     57  43  59 S3        30.10R
SEATTLE WA     CLOUDY    61  52  72 SW10G25   29.98R
$$

*** WEATHER ACROSS MANITOBA...SASKATCHEWAN AND ONTARIO ***
                ***ONTARIO***

CITY           SKY/WX    TMP DP  RH WIND       PRES   REMARKS
GERALDTON      CLOUDY    66  63  88 S7        29.88S
THUNDER BAY    CLOUDY    61  61 100 E7        29.87F FOG
SIOUX LOOKOUT  CLOUDY    72  63  73 S9        29.71F
TORONTO        MOSUNNY   77  66  69 NW10      30.05R
BIG TROUT LK   CLOUDY    57  55  94 SE12G20   29.66F
PICKLE LAKE    PTSUNNY   73  64  73 S16G23    29.69F
DRYDEN         SUNNY     72  61  68 SW16      29.71S
KENORA         CLOUDY    68  61  77 SW10      29.71R
$$
                *** MANITOBA***

CITY           SKY/WX    TMP DP  RH WIND       PRES   REMARKS
BRANDON        PTSUNNY   63  57  82 NW7       29.68F
DAUPHIN        LGT RAIN  59  55  88 NW10G18   29.61F
ISLAND LAKE    CLOUDY    66  63  88 VRB2      29.51S
PILOT MOUND      N/A     64  61  88 W9          N/A
THE PAS        PTSUNNY   59  54  82 SW7       29.51R
THOMPSON       DRIZZLE   54  54 100 E5        29.53R FOG
WINNIPEG       LGT RAIN  68  64  88 N8        29.64F
LYNN LAKE      CLOUDY    59  59 100 MISG      29.48F
CHURCHILL      CLOUDY    48  46  93 SE25G31   29.68F
GILLAM         DRZL/FOG  48  48 100 E7        29.58F VSB 3/4
$$
                ***SASKATCHEWAN***

CITY           SKY/WX    TMP DP  RH WIND       PRES   REMARKS
ESTEVAN        MOSUNNY   63  50  63 W15G23    29.80R
KINDERSLEY     PTSUNNY   55  37  50 SW14      29.65R
LLOYDMINSTER   PTSUNNY   55  45  67 W8        29.56R
PRINCE ALBERT  MOSUNNY   59  46  63 SW10      29.50S
REGINA         MOSUNNY   59  48  67 SW17G24   29.71R
YORKTON        CLOUDY    57  55  94 S7        29.65F
N. BATTLEFORD    N/A     59  46  63 W13G18    29.59R
LA RONGE       MOSUNNY   61  55  82 VRB2      29.44S
SASKATOON      MOSUNNY   59  46  63 SW15      29.58R
SWIFT CURRENT  SUNNY     61  37  41 W28G39    29.73R
$$
NOTE: THESE ARE AUTOMATED STATIONS WITH LIMITED QUALITY CONTROL
      "FAIR" INDICATES FEW OR NO CLOUDS BELOW 12,000 FEET WITH NO
      SIGNIFICANT WEATHER AND/OR OBSTRUCTIONS TO VISIBILITY.
      SKY/WX - SKY CONDITION AND SIGNIFICANT WEATHER.
      TMP - AIR TEMPERATURE.    DP   - DEWPOINT TEMPERATURE.
      RH  - RELATIVE HUMIDITY.  PRES - PRESSURE.
      HX  - HEAT INDEX.         WCI  - WIND CHILL INDEX.
$


USA.gov is the U.S. government's official web portal to all federal, state and local government web resources and services.